Main page
METAR-TAF:

METAR-TAF

Airports :

Taylorville Municipal Airport

Taylorville, Illinois, United States

latitude: 39-32-03N, longitude: 089-19-40W, elevation: 623 ft

Current weather observation

The report was made 27 minutes ago, at 17:15 UTC
Wind 6 mph from the North/Northeast
Temperature 68°F
Humidity 64%
Pressure 29.93 in. Hg
Visibility: 10 miles
Clear sky

METAR: KTAZ 251715Z AUTO 03005KT 10SM CLR 20/13 A2993 RMK AO2 T02000125

Time: 12:42 (17:42 UTC)


TAF: missing

Weather observations and forecasts of more than 4000 airports (METAR and TAF reports).

The available stations are represented by yellow and red dots on the map.

Hover mouse over dot to see the name of the station.

Then click to see weather observations and forecasts.

To change the map : click on the green buttons with a black cross to zoom in, on the green button with a dash to zoom out, or on the green arrows for adjacent maps.


METAR-TAF: